| time (UTC) | temp F | wind direction | speed MPH | gust MPH | rain 1hr in | rain 24hr in | rain mn in | humidity % | barometer mb |
| 20260505005005 | 51 | 289 | 7.0 | 12.0 | 0.01 | 0.04 | 0.04 | 78 | 1004.0 |
| 20260505004505 | 51 | 285 | 6.0 | 15.0 | 0.01 | 0.04 | 0.04 | 77 | 1003.9 |
| 20260505004005 | 51 | 295 | 7.0 | 16.0 | 0.00 | 0.03 | 0.03 | 76 | 1003.8 |
| 20260505003505 | 52 | 299 | 8.0 | 16.0 | 0.00 | 0.03 | 0.03 | 75 | 1003.9 |
| 20260505003005 | 53 | 308 | 8.0 | 16.0 | 0.00 | 0.03 | 0.03 | 73 | 1003.7 |
| 20260505002505 | 53 | 313 | 7.0 | 13.0 | 0.01 | 0.03 | 0.03 | 72 | 1003.7 |
| 20260505002006 | 53 | 316 | 4.0 | 12.0 | 0.02 | 0.03 | 0.03 | 72 | 1003.7 |
| 20260505001505 | 53 | 299 | 6.0 | 12.0 | 0.02 | 0.03 | 0.03 | 72 | 1003.5 |
| 20260505001005 | 53 | 307 | 5.0 | 12.0 | 0.03 | 0.03 | 0.03 | 73 | 1003.4 |
| 20260505000505 | 54 | 306 | 4.0 | 9.0 | 0.03 | 0.03 | 0.03 | 74 | 1003.4 |
| 20260505000006 | 53 | 287 | 5.0 | 8.0 | 0.03 | 0.03 | 0.03 | 75 | 1003.4 |
| 20260504235506 | 54 | 261 | 0.0 | 3.0 | 0.03 | 0.03 | 0.03 | 77 | 1003.2 |
| 20260504235005 | 54 | 261 | 0.0 | 1.0 | 0.03 | 0.03 | 0.03 | 75 | 1003.1 |
| 20260504234505 | 54 | 261 | 0.0 | 1.0 | 0.03 | 0.03 | 0.03 | 71 | 1003.2 |
| 20260504234006 | 54 | 261 | 0.0 | 3.0 | 0.03 | 0.03 | 0.03 | 71 | 1003.2 |
| 20260504233505 | 54 | 261 | 0.0 | 3.0 | 0.03 | 0.03 | 0.03 | 71 | 1003.2 |
| 20260504233005 | 55 | 261 | 0.0 | 10.0 | 0.03 | 0.03 | 0.03 | 66 | 1003.2 |
| 20260504232505 | 55 | 261 | 1.0 | 12.0 | 0.02 | 0.02 | 0.02 | 64 | 1003.4 |
| 20260504232006 | 56 | 275 | 8.0 | 20.0 | 0.01 | 0.01 | 0.01 | 59 | 1003.3 |
| 20260504231505 | 57 | 260 | 10.0 | 20.0 | 0.01 | 0.01 | 0.01 | 59 | 1003.3 |
| 20260504231005 | 60 | 258 | 11.0 | 20.0 | 0.00 | 0.00 | 0.00 | 50 | 1003.0 |
| 20260504230505 | 61 | 258 | 7.0 | 13.0 | 0.00 | 0.00 | 0.00 | 45 | 1002.6 |
| 20260504230005 | 60 | 284 | 6.0 | 13.0 | 0.00 | 0.00 | 0.00 | 44 | 1002.4 |
| 20260504225505 | 60 | 293 | 7.0 | 13.0 | 0.00 | 0.00 | 0.00 | 45 | 1002.1 |
| 20260504225005 | 60 | 285 | 5.0 | 13.0 | 0.00 | 0.00 | 0.00 | 45 | 1002.1 |
| 20260504224505 | 61 | 289 | 7.0 | 14.0 | 0.00 | 0.00 | 0.00 | 44 | 1001.9 |
| 20260504224005 | 61 | 302 | 6.0 | 18.0 | 0.00 | 0.00 | 0.00 | 44 | 1001.7 |
| 20260504223505 | 61 | 304 | 9.0 | 18.0 | 0.00 | 0.00 | 0.00 | 43 | 1001.7 |
| 20260504222505 | 63 | 304 | 7.0 | 16.0 | 0.00 | 0.00 | 0.00 | 41 | 1001.7 |
| 20260504222005 | 63 | 324 | 5.0 | 16.0 | 0.00 | 0.00 | 0.00 | 41 | 1001.6 |
| 20260504221005 | 64 | 349 | 5.0 | 10.0 | 0.00 | 0.00 | 0.00 | 42 | 1001.5 |
| 20260504220505 | 63 | 42 | 5.0 | 10.0 | 0.00 | 0.00 | 0.00 | 42 | 1001.6 |
| 20260504220005 | 64 | 55 | 6.0 | 10.0 | 0.00 | 0.00 | 0.00 | 41 | 1001.7 |
| 20260504215505 | 63 | 338 | 2.0 | 9.0 | 0.00 | 0.00 | 0.00 | 41 | 1001.8 |
| 20260504215005 | 64 | 7 | 6.0 | 9.0 | 0.00 | 0.00 | 0.00 | 40 | 1001.9 |
| 20260504214005 | 63 | 26 | 2.0 | 5.0 | 0.00 | 0.00 | 0.00 | 41 | 1002.1 |
| 20260504213005 | 62 | 35 | 1.0 | 7.0 | 0.00 | 0.00 | 0.00 | 42 | 1002.0 |
| 20260504212505 | 62 | 61 | 2.0 | 7.0 | 0.00 | 0.00 | 0.00 | 41 | 1001.8 |
| 20260504212006 | 62 | 5 | 1.0 | 5.0 | 0.00 | 0.00 | 0.00 | 43 | 1002.0 |
| 20260504211505 | 62 | 21 | 1.0 | 7.0 | 0.00 | 0.00 | 0.00 | 43 | 1002.1 |
| 20260504210005 | 62 | 327 | 5.0 | 20.0 | 0.00 | 0.00 | 0.00 | 43 | 1002.2 |
| 20260504205504 | 62 | 345 | 6.0 | 20.0 | 0.00 | 0.00 | 0.00 | 42 | 1002.2 |
| 20260504205005 | 63 | 31 | 6.0 | 21.0 | 0.00 | 0.00 | 0.00 | 42 | 1002.1 |
| 20260504204005 | 63 | 341 | 7.0 | 25.0 | 0.00 | 0.00 | 0.00 | 40 | 1001.8 |
| 20260504203506 | 64 | 3 | 7.0 | 25.0 | 0.00 | 0.00 | 0.00 | 38 | 1001.6 |
| 20260504203005 | 64 | 348 | 5.0 | 20.0 | 0.00 | 0.00 | 0.00 | 37 | 1001.4 |
| 20260504202505 | 64 | 357 | 8.0 | 20.0 | 0.00 | 0.00 | 0.00 | 37 | 1001.2 |
| 20260504202005 | 64 | 48 | 10.0 | 20.0 | 0.00 | 0.00 | 0.00 | 37 | 1001.1 |
| 20260504201505 | 62 | 26 | 10.0 | 20.0 | 0.00 | 0.00 | 0.00 | 39 | 1001.2 |
| 20260504201005 | 62 | 35 | 6.0 | 24.0 | 0.00 | 0.00 | 0.00 | 40 | 1001.3 |
| 20260504200505 | 62 | 34 | 10.0 | 29.0 | 0.00 | 0.00 | 0.00 | 38 | 1001.3 |
| 20260504200005 | 63 | 43 | 14.0 | 29.0 | 0.00 | 0.00 | 0.00 | 37 | 1001.2 |
| 20260504195504 | 64 | 44 | 10.0 | 22.0 | 0.00 | 0.00 | 0.00 | 35 | 1001.1 |
| 20260504195006 | 65 | 34 | 7.0 | 20.0 | 0.00 | 0.00 | 0.00 | 33 | 1001.1 |
| 20260504194506 | 67 | 2 | 5.0 | 20.0 | 0.00 | 0.00 | 0.00 | 28 | 1001.1 |
| 20260504194004 | 67 | 24 | 6.0 | 26.0 | 0.00 | 0.00 | 0.00 | 25 | 1000.7 |
| 20260504193504 | 67 | 33 | 13.0 | 26.0 | 0.00 | 0.00 | 0.00 | 25 | 1001.0 |
| 20260504193004 | 67 | 336 | 8.0 | 23.0 | 0.00 | 0.00 | 0.00 | 24 | 1000.7 |
| 20260504192504 | 67 | 340 | 11.0 | 23.0 | 0.00 | 0.00 | 0.00 | 24 | 1000.7 |
| 20260504192004 | 67 | 326 | 10.0 | 21.0 | 0.00 | 0.00 | 0.00 | 24 | 1000.8 |
| 20260504191505 | 67 | 292 | 6.0 | 24.0 | 0.00 | 0.00 | 0.00 | 29 | 1000.7 |
| 20260504191006 | 67 | 277 | 12.0 | 26.0 | 0.00 | 0.00 | 0.00 | 29 | 1000.8 |
| 20260504185504 | 68 | 285 | 13.0 | 22.0 | 0.00 | 0.00 | 0.00 | 28 | 1000.8 |
| 20260504184505 | 69 | 302 | 11.0 | 20.0 | 0.00 | 0.00 | 0.00 | 28 | 1000.9 |
| 20260504184004 | 69 | 300 | 8.0 | 18.0 | 0.00 | 0.00 | 0.00 | 28 | 1000.7 |
| 20260504183505 | 69 | 285 | 10.0 | 18.0 | 0.00 | 0.00 | 0.00 | 26 | 1000.8 |
| 20260504183005 | 69 | 293 | 6.0 | 12.0 | 0.00 | 0.00 | 0.00 | 27 | 1000.8 |
| 20260504182504 | 69 | 260 | 5.0 | 15.0 | 0.00 | 0.00 | 0.00 | 27 | 1000.8 |
| 20260504182005 | 68 | 237 | 4.0 | 15.0 | 0.00 | 0.00 | 0.00 | 28 | 1000.8 |
| 20260504181504 | 69 | 237 | 6.0 | 15.0 | 0.00 | 0.00 | 0.00 | 27 | 1000.8 |
| 20260504181004 | 69 | 232 | 6.0 | 12.0 | 0.00 | 0.00 | 0.00 | 27 | 1000.9 |
| 20260504180506 | 69 | 231 | 7.0 | 12.0 | 0.00 | 0.00 | 0.00 | 28 | 1000.9 |
| 20260504175505 | 69 | 213 | 6.0 | 13.0 | 0.00 | 0.00 | 0.00 | 29 | 1001.0 |
| 20260504174504 | 69 | 235 | 3.0 | 9.0 | 0.00 | 0.00 | 0.00 | 27 | 1001.1 |
| 20260504174006 | 69 | 223 | 5.0 | 10.0 | 0.00 | 0.00 | 0.00 | 26 | 1001.2 |
| 20260504173504 | 69 | 248 | 5.0 | 10.0 | 0.00 | 0.00 | 0.00 | 26 | 1001.3 |
| 20260504173004 | 68 | 248 | 5.0 | 10.0 | 0.00 | 0.00 | 0.00 | 27 | 1001.4 |
| 20260504172506 | 68 | 251 | 5.0 | 12.0 | 0.00 | 0.00 | 0.00 | 26 | 1001.3 |
| 20260504172004 | 68 | 274 | 6.0 | 13.0 | 0.00 | 0.00 | 0.00 | 26 | 1001.5 |
| 20260504171506 | 68 | 265 | 7.0 | 14.0 | 0.00 | 0.00 | 0.00 | 26 | 1001.4 |
| 20260504171005 | 68 | 273 | 8.0 | 14.0 | 0.00 | 0.00 | 0.00 | 26 | 1001.5 |
| 20260504170504 | 68 | 276 | 3.0 | 13.0 | 0.00 | 0.00 | 0.00 | 27 | 1001.4 |
| 20260504151004 | 62 | 275 | 3.0 | 7.0 | 0.00 | 0.00 | 0.00 | 29 | 1001.6 |
| 20260504150505 | 61 | 200 | 1.0 | 7.0 | 0.00 | 0.00 | 0.00 | 38 | 1001.6 |
| 20260504141006 | 54 | 37 | 1.0 | 3.0 | 0.00 | 0.00 | 0.00 | 40 | 1001.9 |
| 20260504140506 | 53 | 38 | 0.0 | 2.0 | 0.00 | 0.00 | 0.00 | 43 | 1002.0 |
| 20260504130506 | 51 | 302 | 1.0 | 5.0 | 0.00 | 0.00 | 0.00 | 44 | 1002.0 |
| 20260504110505 | 47 | 311 | 0.0 | 6.0 | 0.00 | 0.00 | 0.00 | 38 | 1002.2 |
| 20260504100506 | 48 | 321 | 2.0 | 5.0 | 0.00 | 0.00 | 0.00 | 37 | 1002.1 |
| 20260504082005 | 50 | 304 | 0.0 | 2.0 | 0.00 | 0.00 | 0.00 | 40 | 1002.8 |
| 20260504081505 | 50 | 304 | 0.0 | 5.0 | 0.00 | 0.00 | 0.00 | 40 | 1002.8 |
| 20260504081006 | 50 | 304 | 1.0 | 5.0 | 0.00 | 0.00 | 0.00 | 40 | 1002.9 |
| 20260504080505 | 50 | 302 | 0.0 | 3.0 | 0.00 | 0.00 | 0.00 | 40 | 1003.0 |
| 20260504050505 | 57 | 54 | 0.0 | 0.0 | 0.00 | 0.00 | 0.00 | 36 | 1003.6 |
| 20260504050005 | 57 | 54 | 0.0 | 0.0 | 0.00 | 0.00 | 0.00 | 36 | 1003.5 |
| 20260504045505 | 57 | 54 | 0.0 | 2.0 | 0.00 | 0.00 | 0.00 | 35 | 1003.6 |
| 20260504045005 | 58 | 54 | 0.0 | 2.0 | 0.00 | 0.00 | 0.00 | 34 | 1003.6 |
| 20260504044506 | 59 | 54 | 0.0 | 2.0 | 0.00 | 0.00 | 0.00 | 33 | 1003.7 |
| 20260504044005 | 59 | 54 | 0.0 | 2.0 | 0.00 | 0.00 | 0.00 | 32 | 1003.6 |
| 20260504043506 | 60 | 54 | 0.0 | 2.0 | 0.00 | 0.00 | 0.00 | 30 | 1003.7 |
| 20260504043005 | 60 | 54 | 0.0 | 3.0 | 0.00 | 0.00 | 0.00 | 28 | 1003.6 |
| 20260504042505 | 60 | 54 | 0.0 | 7.0 | 0.00 | 0.00 | 0.00 | 28 | 1003.7 |
| 20260504041006 | 60 | 59 | 2.0 | 7.0 | 0.00 | 0.00 | 0.00 | 31 | 1003.8 |
| 20260504040505 | 60 | 344 | 1.0 | 7.0 | 0.00 | 0.00 | 0.00 | 28 | 1003.7 |
| 20260504035505 | 61 | 325 | 1.0 | 5.0 | 0.00 | 0.00 | 0.00 | 28 | 1003.5 |
| 20260504034506 | 61 | 319 | 3.0 | 7.0 | 0.00 | 0.00 | 0.00 | 27 | 1003.4 |
| 20260504034005 | 62 | 276 | 5.0 | 9.0 | 0.00 | 0.00 | 0.00 | 28 | 1003.3 |
| 20260504033005 | 63 | 272 | 7.0 | 10.0 | 0.00 | 0.00 | 0.00 | 27 | 1003.1 |
| 20260504032506 | 63 | 268 | 6.0 | 12.0 | 0.00 | 0.00 | 0.00 | 26 | 1003.2 |
| 20260504031005 | 64 | 264 | 6.0 | 9.0 | 0.00 | 0.00 | 0.00 | 26 | 1003.1 |
| 20260504030505 | 64 | 261 | 5.0 | 8.0 | 0.00 | 0.00 | 0.00 | 25 | 1003.1 |
| 20260504030005 | 64 | 262 | 5.0 | 9.0 | 0.00 | 0.00 | 0.00 | 25 | 1003.1 |
| 20260504025505 | 64 | 264 | 5.0 | 9.0 | 0.00 | 0.00 | 0.00 | 26 | 1003.0 |
| 20260504025005 | 65 | 263 | 3.0 | 9.0 | 0.00 | 0.00 | 0.00 | 26 | 1003.0 |
| 20260504024505 | 65 | 263 | 1.0 | 6.0 | 0.00 | 0.00 | 0.00 | 25 | 1002.9 |
| 20260504024005 | 65 | 263 | 2.0 | 6.0 | 0.00 | 0.00 | 0.00 | 25 | 1002.9 |
| 20260504023505 | 65 | 255 | 2.0 | 5.0 | 0.00 | 0.00 | 0.00 | 25 | 1002.9 |
| 20260504023005 | 66 | 254 | 2.0 | 5.0 | 0.00 | 0.00 | 0.00 | 25 | 1002.9 |
| 20260504022505 | 66 | 254 | 2.0 | 5.0 | 0.00 | 0.00 | 0.00 | 24 | 1002.8 |
| 20260504022005 | 66 | 250 | 1.0 | 5.0 | 0.00 | 0.00 | 0.00 | 25 | 1002.8 |
| 20260504021005 | 67 | 262 | 1.0 | 7.0 | 0.00 | 0.00 | 0.00 | 24 | 1002.9 |
| 20260504020505 | 67 | 263 | 3.0 | 7.0 | 0.00 | 0.00 | 0.00 | 24 | 1002.8 |
| 20260504020005 | 67 | 280 | 3.0 | 7.0 | 0.00 | 0.00 | 0.00 | 24 | 1002.8 |
| 20260504015505 | 68 | 225 | 1.0 | 6.0 | 0.00 | 0.00 | 0.00 | 24 | 1002.7 |
| 20260504015005 | 68 | 222 | 2.0 | 6.0 | 0.00 | 0.00 | 0.00 | 24 | 1002.7 |
| 20260504014505 | 68 | 224 | 2.0 | 9.0 | 0.00 | 0.00 | 0.00 | 24 | 1002.7 |
| 20260504013505 | 69 | 233 | 3.0 | 9.0 | 0.00 | 0.00 | 0.00 | 23 | 1002.7 |
| 20260504013005 | 69 | 250 | 5.0 | 10.0 | 0.00 | 0.00 | 0.00 | 24 | 1002.7 |
| 20260504012505 | 69 | 228 | 3.0 | 10.0 | 0.00 | 0.00 | 0.00 | 23 | 1002.7 |
| 20260504011506 | 70 | 214 | 5.0 | 13.0 | 0.00 | 0.00 | 0.00 | 23 | 1002.8 |
| 20260504011005 | 70 | 220 | 6.0 | 14.0 | 0.00 | 0.00 | 0.00 | 23 | 1002.8 |
| 20260504010505 | 70 | 217 | 8.0 | 14.0 | 0.00 | 0.00 | 0.00 | 23 | 1002.7 |
| 20260504010005 | 70 | 234 | 7.0 | 18.0 | 0.00 | 0.00 | 0.00 | 22 | 1002.9 |
| 20260504005505 | 70 | 237 | 7.0 | 18.0 | 0.00 | 0.00 | 0.00 | 22 | 1002.9 |